| time (UTC) | temp C | wind direction | speed KPH | gust KPH | rain 1hr cm | rain 24hr cm | rain mn cm | humidity % | barometer mb |
| 20260506231527 | 11 | 332 | 4.8 | 16.1 | 0.00 | 0.00 | 0.00 | 35 | 1014.7 |
| 20260506231008 | 12 | 322 | 6.4 | 16.1 | 0.00 | 0.00 | 0.00 | 34 | 1014.7 |
| 20260506230515 | 12 | 316 | 8.0 | 20.9 | 0.00 | 0.00 | 0.00 | 35 | 1014.7 |
| 20260506230048 | 11 | 359 | 8.0 | 20.9 | 0.00 | 0.00 | 0.00 | 34 | 1014.8 |
| 20260506225509 | 11 | 332 | 9.7 | 20.9 | 0.00 | 0.00 | 0.00 | 34 | 1014.9 |
| 20260506225011 | 12 | 337 | 11.3 | 27.4 | 0.00 | 0.00 | 0.00 | 34 | 1014.9 |
| 20260506224530 | 12 | 292 | 9.7 | 27.4 | 0.00 | 0.00 | 0.00 | 33 | 1015.0 |
| 20260506224009 | 12 | 311 | 14.5 | 27.4 | 0.00 | 0.00 | 0.00 | 32 | 1015.1 |
| 20260506223507 | 12 | 349 | 14.5 | 22.5 | 0.00 | 0.00 | 0.00 | 34 | 1015.1 |
| 20260506223033 | 12 | 284 | 12.9 | 20.9 | 0.00 | 0.00 | 0.00 | 34 | 1015.0 |
| 20260506222513 | 12 | 14 | 4.8 | 17.7 | 0.00 | 0.00 | 0.00 | 32 | 1015.0 |
| 20260506222015 | 12 | 333 | 6.4 | 20.9 | 0.00 | 0.00 | 0.00 | 33 | 1015.1 |
| 20260506221530 | 12 | 320 | 11.3 | 20.9 | 0.00 | 0.00 | 0.00 | 33 | 1015.3 |
| 20260506221013 | 12 | 338 | 9.7 | 20.9 | 0.00 | 0.00 | 0.00 | 34 | 1015.2 |
| 20260506220507 | 12 | 352 | 11.3 | 25.7 | 0.00 | 0.00 | 0.00 | 33 | 1015.3 |
| 20260506220035 | 12 | 345 | 12.9 | 25.7 | 0.00 | 0.00 | 0.00 | 36 | 1015.2 |
| 20260506215510 | 12 | 360 | 12.9 | 24.1 | 0.00 | 0.00 | 0.00 | 33 | 1015.3 |
| 20260506215009 | 12 | 3 | 9.7 | 24.1 | 0.00 | 0.00 | 0.00 | 33 | 1015.4 |
| 20260506214529 | 12 | 348 | 8.0 | 22.5 | 0.00 | 0.00 | 0.00 | 34 | 1015.3 |
| 20260506214009 | 12 | 2 | 9.7 | 22.5 | 0.00 | 0.00 | 0.00 | 36 | 1015.5 |
| 20260506213515 | 11 | 11 | 11.3 | 17.7 | 0.00 | 0.00 | 0.00 | 37 | 1015.5 |
| 20260506213028 | 12 | 341 | 8.0 | 19.3 | 0.00 | 0.00 | 0.00 | 35 | 1015.5 |
| 20260506212510 | 12 | 312 | 8.0 | 30.6 | 0.00 | 0.00 | 0.00 | 34 | 1015.6 |
| 20260506212016 | 13 | 344 | 16.1 | 30.6 | 0.00 | 0.00 | 0.00 | 35 | 1015.6 |
| 20260506211528 | 13 | 318 | 9.7 | 24.1 | 0.00 | 0.00 | 0.00 | 34 | 1015.6 |
| 20260506211010 | 12 | 328 | 14.5 | 24.1 | 0.00 | 0.00 | 0.00 | 35 | 1015.7 |
| 20260506210515 | 12 | 328 | 12.9 | 19.3 | 0.00 | 0.00 | 0.00 | 39 | 1015.6 |
| 20260506210046 | 12 | 314 | 4.8 | 19.3 | 0.00 | 0.00 | 0.00 | 36 | 1015.7 |
| 20260506205512 | 12 | 326 | 8.0 | 22.5 | 0.00 | 0.00 | 0.00 | 38 | 1015.9 |
| 20260506205014 | 11 | 278 | 11.3 | 22.5 | 0.00 | 0.00 | 0.00 | 38 | 1015.9 |
| 20260506204527 | 11 | 351 | 8.0 | 20.9 | 0.00 | 0.00 | 0.00 | 38 | 1016.0 |
| 20260506204008 | 11 | 336 | 11.3 | 20.9 | 0.00 | 0.00 | 0.00 | 38 | 1016.3 |
| 20260506203514 | 11 | 269 | 6.4 | 20.9 | 0.00 | 0.00 | 0.00 | 38 | 1016.3 |
| 20260506203026 | 11 | 49 | 6.4 | 24.1 | 0.00 | 0.00 | 0.00 | 39 | 1016.3 |
| 20260506202510 | 11 | 349 | 9.7 | 24.1 | 0.00 | 0.00 | 0.00 | 38 | 1016.3 |
| 20260506202011 | 11 | 310 | 8.0 | 24.1 | 0.00 | 0.00 | 0.00 | 39 | 1016.3 |
| 20260506201528 | 11 | 332 | 12.9 | 25.7 | 0.00 | 0.00 | 0.00 | 39 | 1016.4 |
| 20260506201011 | 11 | 3 | 12.9 | 25.7 | 0.00 | 0.00 | 0.00 | 37 | 1016.5 |
| 20260506200510 | 11 | 356 | 11.3 | 22.5 | 0.00 | 0.00 | 0.00 | 39 | 1016.5 |
| 20260506200032 | 11 | 60 | 6.4 | 20.9 | 0.00 | 0.00 | 0.00 | 38 | 1016.4 |
| 20260506195511 | 11 | 316 | 8.0 | 25.7 | 0.00 | 0.00 | 0.00 | 36 | 1016.6 |
| 20260506195011 | 11 | 327 | 9.7 | 25.7 | 0.00 | 0.00 | 0.00 | 37 | 1016.6 |
| 20260506194530 | 11 | 295 | 11.3 | 25.7 | 0.00 | 0.00 | 0.00 | 36 | 1016.6 |
| 20260506194011 | 11 | 295 | 12.9 | 25.7 | 0.00 | 0.00 | 0.00 | 39 | 1016.6 |
| 20260506193511 | 12 | 347 | 6.4 | 27.4 | 0.00 | 0.00 | 0.00 | 40 | 1016.6 |
| 20260506193035 | 12 | 338 | 16.1 | 27.4 | 0.00 | 0.00 | 0.00 | 37 | 1016.7 |
| 20260506192510 | 11 | 342 | 9.7 | 27.4 | 0.00 | 0.00 | 0.00 | 38 | 1016.7 |
| 20260506192011 | 11 | 325 | 11.3 | 27.4 | 0.00 | 0.00 | 0.00 | 41 | 1016.7 |
| 20260506191528 | 11 | 302 | 8.0 | 22.5 | 0.00 | 0.00 | 0.00 | 42 | 1016.7 |
| 20260506191008 | 11 | 315 | 8.0 | 22.5 | 0.00 | 0.00 | 0.00 | 39 | 1016.7 |
| 20260506190511 | 11 | 337 | 6.4 | 20.9 | 0.00 | 0.00 | 0.00 | 42 | 1016.8 |
| 20260506190031 | 11 | 222 | 6.4 | 22.5 | 0.00 | 0.00 | 0.00 | 43 | 1016.9 |
| 20260506185512 | 11 | 325 | 14.5 | 22.5 | 0.00 | 0.00 | 0.00 | 42 | 1017.0 |
| 20260506185012 | 10 | 221 | 9.7 | 20.9 | 0.00 | 0.00 | 0.00 | 41 | 1017.1 |
| 20260506184536 | 10 | 214 | 8.0 | 19.3 | 0.00 | 0.00 | 0.00 | 40 | 1017.0 |
| 20260506184009 | 10 | 321 | 11.3 | 24.1 | 0.00 | 0.00 | 0.00 | 41 | 1017.2 |
| 20260506183512 | 11 | 344 | 8.0 | 24.1 | 0.00 | 0.00 | 0.00 | 41 | 1017.1 |
| 20260506183028 | 10 | 315 | 9.7 | 24.1 | 0.00 | 0.00 | 0.00 | 43 | 1017.3 |
| 20260506182511 | 10 | 221 | 6.4 | 24.1 | 0.00 | 0.00 | 0.00 | 43 | 1017.3 |
| 20260506182013 | 10 | 342 | 12.9 | 40.2 | 0.00 | 0.00 | 0.00 | 43 | 1017.4 |
| 20260506181538 | 10 | 316 | 16.1 | 40.2 | 0.00 | 0.00 | 0.00 | 43 | 1017.5 |
| 20260506181014 | 10 | 316 | 12.9 | 27.4 | 0.00 | 0.00 | 0.00 | 41 | 1017.5 |
| 20260506180507 | 10 | 329 | 14.5 | 27.4 | 0.00 | 0.00 | 0.00 | 44 | 1017.5 |
| 20260506180028 | 10 | 3 | 14.5 | 20.9 | 0.00 | 0.00 | 0.00 | 44 | 1017.5 |
| 20260506175508 | 10 | 337 | 11.3 | 25.7 | 0.00 | 0.00 | 0.00 | 43 | 1017.6 |
| 20260506175013 | 10 | 11 | 11.3 | 25.7 | 0.00 | 0.00 | 0.00 | 43 | 1017.8 |
| 20260506174534 | 10 | 340 | 8.0 | 24.1 | 0.00 | 0.00 | 0.00 | 45 | 1017.8 |
| 20260506174013 | 9 | 351 | 11.3 | 24.1 | 0.00 | 0.00 | 0.00 | 43 | 1017.8 |
| 20260506173510 | 9 | 282 | 14.5 | 22.5 | 0.00 | 0.00 | 0.00 | 43 | 1017.7 |
| 20260506173029 | 8 | 321 | 11.3 | 30.6 | 0.00 | 0.00 | 0.00 | 43 | 1017.8 |
| 20260506172512 | 9 | 308 | 11.3 | 30.6 | 0.00 | 0.00 | 0.00 | 44 | 1018.0 |
| 20260506172011 | 8 | 330 | 11.3 | 30.6 | 0.00 | 0.00 | 0.00 | 44 | 1018.0 |
| 20260506171532 | 8 | 293 | 16.1 | 30.6 | 0.00 | 0.00 | 0.00 | 42 | 1018.0 |
| 20260506171011 | 8 | 337 | 8.0 | 16.1 | 0.00 | 0.00 | 0.00 | 46 | 1018.1 |
| 20260506170512 | 8 | 224 | 8.0 | 30.6 | 0.00 | 0.00 | 0.00 | 45 | 1018.1 |
| 20260506170031 | 8 | 50 | 8.0 | 30.6 | 0.00 | 0.00 | 0.00 | 46 | 1018.2 |
| 20260506165509 | 8 | 360 | 19.3 | 30.6 | 0.00 | 0.00 | 0.00 | 46 | 1018.0 |
| 20260506165010 | 8 | 336 | 14.5 | 29.0 | 0.00 | 0.00 | 0.00 | 44 | 1018.1 |
| 20260506164543 | 8 | 14 | 11.3 | 22.5 | 0.00 | 0.00 | 0.00 | 45 | 1018.1 |
| 20260506164008 | 8 | 307 | 8.0 | 24.1 | 0.00 | 0.00 | 0.00 | 48 | 1018.2 |
| 20260506163507 | 8 | 16 | 9.7 | 25.7 | 0.00 | 0.00 | 0.00 | 47 | 1018.1 |
| 20260506163030 | 8 | 340 | 14.5 | 25.7 | 0.00 | 0.00 | 0.00 | 48 | 1018.2 |
| 20260506162510 | 8 | 323 | 12.9 | 24.1 | 0.00 | 0.00 | 0.00 | 47 | 1018.2 |
| 20260506162011 | 7 | 335 | 11.3 | 27.4 | 0.00 | 0.00 | 0.00 | 47 | 1018.3 |
| 20260506161528 | 7 | 341 | 11.3 | 27.4 | 0.00 | 0.00 | 0.00 | 47 | 1018.3 |
| 20260506161010 | 8 | 311 | 11.3 | 27.4 | 0.00 | 0.00 | 0.00 | 47 | 1018.2 |
| 20260506160510 | 8 | 4 | 9.7 | 20.9 | 0.00 | 0.00 | 0.00 | 50 | 1018.2 |
| 20260506160030 | 8 | 314 | 14.5 | 20.9 | 0.00 | 0.00 | 0.00 | 49 | 1018.3 |
| 20260506155509 | 7 | 40 | 9.7 | 20.9 | 0.00 | 0.00 | 0.00 | 51 | 1018.3 |
| 20260506155010 | 7 | 314 | 9.7 | 17.7 | 0.00 | 0.00 | 0.00 | 51 | 1018.3 |
| 20260506154529 | 7 | 340 | 8.0 | 16.1 | 0.00 | 0.00 | 0.00 | 51 | 1018.3 |
| 20260506154016 | 7 | 24 | 4.8 | 17.7 | 0.00 | 0.00 | 0.00 | 53 | 1018.5 |
| 20260506153514 | 7 | 326 | 6.4 | 17.7 | 0.00 | 0.00 | 0.00 | 52 | 1018.5 |
| 20260506153026 | 7 | 341 | 6.4 | 19.3 | 0.00 | 0.00 | 0.00 | 53 | 1018.5 |
| 20260506152508 | 7 | 328 | 8.0 | 22.5 | 0.00 | 0.00 | 0.00 | 53 | 1018.5 |
| 20260506152013 | 6 | 328 | 11.3 | 22.5 | 0.00 | 0.00 | 0.00 | 54 | 1018.6 |
| 20260506151530 | 6 | 333 | 8.0 | 19.3 | 0.00 | 0.00 | 0.00 | 57 | 1018.6 |
| 20260506151009 | 6 | 315 | 11.3 | 19.3 | 0.00 | 0.00 | 0.00 | 54 | 1018.5 |
| 20260506150508 | 6 | 333 | 8.0 | 14.5 | 0.00 | 0.00 | 0.00 | 56 | 1018.6 |
| 20260506150030 | 6 | 308 | 4.8 | 14.5 | 0.00 | 0.00 | 0.00 | 56 | 1018.6 |
| 20260506145513 | 6 | 322 | 4.8 | 12.9 | 0.00 | 0.00 | 0.00 | 56 | 1018.6 |
| 20260506145012 | 6 | 352 | 3.2 | 12.9 | 0.00 | 0.00 | 0.00 | 56 | 1018.6 |
| 20260506144530 | 6 | 344 | 8.0 | 12.9 | 0.00 | 0.00 | 0.00 | 55 | 1018.7 |
| 20260506144013 | 5 | 315 | 6.4 | 12.9 | 0.00 | 0.00 | 0.00 | 54 | 1018.6 |
| 20260506143512 | 5 | 288 | 6.4 | 12.9 | 0.00 | 0.00 | 0.00 | 55 | 1018.6 |
| 20260506143031 | 5 | 328 | 8.0 | 12.9 | 0.00 | 0.00 | 0.00 | 58 | 1018.7 |
| 20260506142513 | 5 | 336 | 8.0 | 11.3 | 0.00 | 0.00 | 0.00 | 57 | 1018.7 |
| 20260506142012 | 5 | 295 | 3.2 | 11.3 | 0.00 | 0.00 | 0.00 | 58 | 1018.7 |
| 20260506141533 | 5 | 331 | 4.8 | 9.7 | 0.00 | 0.00 | 0.00 | 58 | 1018.7 |
| 20260506141015 | 5 | 341 | 3.2 | 9.7 | 0.00 | 0.00 | 0.00 | 59 | 1018.7 |
| 20260506140509 | 5 | 343 | 4.8 | 9.7 | 0.00 | 0.00 | 0.00 | 59 | 1018.7 |
| 20260506140030 | 5 | 322 | 3.2 | 6.4 | 0.00 | 0.00 | 0.00 | 58 | 1018.7 |
| 20260506135508 | 5 | 342 | 1.6 | 4.8 | 0.00 | 0.00 | 0.00 | 61 | 1018.5 |
| 20260506135012 | 5 | 6 | 1.6 | 4.8 | 0.00 | 0.00 | 0.00 | 61 | 1018.7 |
| 20260506134527 | 5 | 305 | 1.6 | 8.0 | 0.00 | 0.00 | 0.00 | 63 | 1018.6 |
| 20260506134010 | 4 | 335 | 3.2 | 8.0 | 0.00 | 0.00 | 0.00 | 60 | 1018.6 |
| 20260506133509 | 4 | 316 | 4.8 | 8.0 | 0.00 | 0.00 | 0.00 | 63 | 1018.5 |
| 20260506133029 | 4 | 3 | 4.8 | 8.0 | 0.00 | 0.00 | 0.00 | 62 | 1018.5 |
| 20260506132514 | 3 | 319 | 3.2 | 8.0 | 0.00 | 0.00 | 0.00 | 65 | 1018.3 |
| 20260506132010 | 3 | 340 | 3.2 | 4.8 | 0.00 | 0.00 | 0.00 | 66 | 1018.4 |
| 20260506131528 | 3 | 342 | 1.6 | 4.8 | 0.00 | 0.00 | 0.00 | 69 | 1018.4 |
| 20260506131011 | 2 | 331 | 1.6 | 4.8 | 0.00 | 0.00 | 0.00 | 69 | 1018.3 |
| 20260506130510 | 2 | 333 | 1.6 | 4.8 | 0.00 | 0.00 | 0.00 | 71 | 1018.2 |
| 20260506130028 | 2 | 9 | 1.6 | 4.8 | 0.00 | 0.00 | 0.00 | 72 | 1018.2 |
| 20260506125514 | 1 | 349 | 0.0 | 1.6 | 0.00 | 0.00 | 0.00 | 73 | 1018.2 |
| 20260506125008 | 1 | 336 | 0.0 | 1.6 | 0.00 | 0.00 | 0.00 | 75 | 1018.2 |
| 20260506124530 | 0 | 338 | 0.0 | 1.6 | 0.00 | 0.00 | 0.00 | 76 | 1018.2 |
| 20260506124009 | 0 | 337 | 0.0 | 0.0 | 0.00 | 0.00 | 0.00 | 77 | 1018.1 |
| 20260506123510 | 0 | 0 | 0.0 | 0.0 | 0.00 | 0.00 | 0.00 | 77 | 1018.1 |
| 20260506123028 | 0 | 0 | 0.0 | 0.0 | 0.00 | 0.00 | 0.00 | 76 | 1018.1 |
| 20260506122509 | 0 | 0 | 0.0 | 1.6 | 0.00 | 0.00 | 0.00 | 77 | 1018.0 |
| 20260506122012 | 0 | 0 | 0.0 | 1.6 | 0.00 | 0.00 | 0.00 | 77 | 1017.9 |
| 20260506121529 | 0 | 346 | 0.0 | 1.6 | 0.00 | 0.00 | 0.00 | 78 | 1017.9 |
| 20260506121009 | -1 | 0 | 0.0 | 1.6 | 0.00 | 0.00 | 0.00 | 79 | 1017.9 |
| 20260506120511 | -1 | 0 | 0.0 | 1.6 | 0.00 | 0.00 | 0.00 | 79 | 1017.8 |
| 20260506120048 | -1 | 0 | 0.0 | 0.0 | 0.00 | 0.00 | 0.00 | 77 | 1017.7 |
| 20260506115518 | -1 | 0 | 0.0 | 0.0 | 0.00 | 0.00 | 0.00 | 78 | 1017.6 |
| 20260506115010 | -1 | 0 | 0.0 | 0.0 | 0.00 | 0.00 | 0.00 | 78 | 1017.4 |
| 20260506114532 | -1 | 0 | 0.0 | 0.0 | 0.00 | 0.00 | 0.00 | 78 | 1017.3 |
| 20260506114012 | -1 | 0 | 0.0 | 0.0 | 0.00 | 0.00 | 0.00 | 78 | 1017.3 |
| 20260506113511 | -1 | 0 | 0.0 | 0.0 | 0.00 | 0.00 | 0.00 | 76 | 1017.4 |
| 20260506113028 | -1 | 0 | 0.0 | 0.0 | 0.00 | 0.00 | 0.00 | 77 | 1017.3 |
| 20260506112511 | -1 | 0 | 0.0 | 1.6 | 0.00 | 0.00 | 0.00 | 77 | 1017.1 |
| 20260506112009 | -1 | 0 | 0.0 | 1.6 | 0.00 | 0.00 | 0.00 | 77 | 1017.1 |
| 20260506111528 | -1 | 0 | 0.0 | 1.6 | 0.00 | 0.00 | 0.00 | 77 | 1017.0 |
| 20260506111007 | -1 | 0 | 0.0 | 0.0 | 0.00 | 0.00 | 0.00 | 77 | 1017.0 |
| 20260506110510 | -1 | 0 | 0.0 | 0.0 | 0.00 | 0.00 | 0.00 | 77 | 1017.1 |
| 20260506110030 | -1 | 0 | 0.0 | 1.6 | 0.00 | 0.00 | 0.00 | 77 | 1017.1 |
| 20260506105508 | -1 | 0 | 0.0 | 1.6 | 0.00 | 0.00 | 0.00 | 76 | 1017.0 |
| 20260506105011 | -1 | 0 | 0.0 | 1.6 | 0.00 | 0.00 | 0.00 | 76 | 1017.0 |
| 20260506104538 | -1 | 0 | 0.0 | 1.6 | 0.00 | 0.00 | 0.00 | 77 | 1016.9 |
| 20260506104014 | -1 | 0 | 0.0 | 3.2 | 0.00 | 0.00 | 0.00 | 77 | 1017.0 |
| 20260506103508 | -1 | 330 | 0.0 | 3.2 | 0.00 | 0.00 | 0.00 | 78 | 1016.9 |
| 20260506103039 | -2 | 0 | 0.0 | 1.6 | 0.00 | 0.00 | 0.00 | 79 | 1017.0 |
| 20260506102516 | -2 | 0 | 0.0 | 1.6 | 0.00 | 0.00 | 0.00 | 78 | 1017.0 |
| 20260506102010 | -1 | 335 | 0.0 | 1.6 | 0.00 | 0.00 | 0.00 | 78 | 1017.1 |
| 20260506101528 | -1 | 0 | 0.0 | 0.0 | 0.00 | 0.00 | 0.00 | 77 | 1016.9 |
| 20260506101011 | -1 | 0 | 0.0 | 0.0 | 0.00 | 0.00 | 0.00 | 77 | 1017.0 |
| 20260506100511 | -1 | 0 | 0.0 | 0.0 | 0.00 | 0.00 | 0.00 | 77 | 1016.9 |
| 20260506100027 | -1 | 0 | 0.0 | 0.0 | 0.00 | 0.00 | 0.00 | 76 | 1016.9 |
| 20260506095508 | -1 | 0 | 0.0 | 0.0 | 0.00 | 0.00 | 0.00 | 76 | 1016.8 |
| 20260506095009 | -1 | 0 | 0.0 | 0.0 | 0.00 | 0.00 | 0.00 | 74 | 1016.7 |
| 20260506094528 | -1 | 0 | 0.0 | 0.0 | 0.00 | 0.00 | 0.00 | 74 | 1016.6 |
| 20260506094012 | 0 | 0 | 0.0 | 0.0 | 0.00 | 0.00 | 0.00 | 73 | 1016.6 |
| 20260506093515 | 0 | 0 | 0.0 | 1.6 | 0.00 | 0.00 | 0.00 | 73 | 1016.4 |
| 20260506093028 | 0 | 0 | 0.0 | 1.6 | 0.00 | 0.00 | 0.00 | 74 | 1016.4 |
| 20260506092508 | -1 | 337 | 0.0 | 1.6 | 0.00 | 0.00 | 0.00 | 76 | 1016.3 |
| 20260506092013 | -1 | 0 | 0.0 | 0.0 | 0.00 | 0.00 | 0.00 | 74 | 1016.5 |
| 20260506091528 | -1 | 0 | 0.0 | 0.0 | 0.00 | 0.00 | 0.00 | 73 | 1016.5 |
| 20260506091011 | 0 | 0 | 0.0 | 0.0 | 0.00 | 0.00 | 0.00 | 71 | 1016.4 |
| 20260506090510 | 0 | 0 | 0.0 | 0.0 | 0.00 | 0.00 | 0.00 | 71 | 1016.3 |
| 20260506090028 | 0 | 0 | 0.0 | 1.6 | 0.00 | 0.00 | 0.00 | 70 | 1016.3 |
| 20260506085510 | 0 | 0 | 0.0 | 3.2 | 0.00 | 0.00 | 0.00 | 70 | 1016.3 |
| 20260506085008 | 0 | 335 | 1.6 | 3.2 | 0.00 | 0.00 | 0.00 | 71 | 1016.2 |
| 20260506084603 | 0 | 349 | 3.2 | 3.2 | 0.00 | 0.00 | 0.00 | 72 | 1016.3 |
| 20260506084012 | 0 | 334 | 1.6 | 3.2 | 0.00 | 0.00 | 0.00 | 71 | 1016.3 |
| 20260506083508 | 0 | 298 | 0.0 | 3.2 | 0.00 | 0.00 | 0.00 | 71 | 1016.2 |
| 20260506083028 | 0 | 338 | 0.0 | 1.6 | 0.00 | 0.00 | 0.00 | 71 | 1016.0 |
| 20260506082511 | 0 | 342 | 0.0 | 1.6 | 0.00 | 0.00 | 0.00 | 71 | 1016.1 |
| 20260506082011 | 0 | 0 | 0.0 | 3.2 | 0.00 | 0.00 | 0.00 | 70 | 1016.0 |
| 20260506081538 | 0 | 326 | 1.6 | 3.2 | 0.00 | 0.00 | 0.00 | 69 | 1015.8 |
| 20260506081011 | 0 | 330 | 1.6 | 3.2 | 0.00 | 0.00 | 0.00 | 69 | 1015.7 |
| 20260506080511 | 0 | 321 | 0.0 | 3.2 | 0.00 | 0.00 | 0.00 | 69 | 1015.8 |
| 20260506073509 | 1 | 326 | 1.6 | 3.2 | 0.00 | 0.00 | 0.00 | 68 | 1015.6 |
| 20260506073029 | 1 | 344 | 1.6 | 3.2 | 0.00 | 0.00 | 0.00 | 67 | 1015.6 |
| 20260506072508 | 1 | 8 | 0.0 | 3.2 | 0.00 | 0.00 | 0.00 | 68 | 1015.6 |
| 20260506072019 | 1 | 8 | 1.6 | 3.2 | 0.00 | 0.00 | 0.00 | 69 | 1015.6 |
| 20260506071527 | 0 | 0 | 0.0 | 0.0 | 0.00 | 0.00 | 0.00 | 69 | 1015.8 |
| 20260506071009 | 0 | 0 | 0.0 | 0.0 | 0.00 | 0.00 | 0.00 | 70 | 1016.1 |
| 20260506070511 | 0 | 0 | 0.0 | 1.6 | 0.00 | 0.00 | 0.00 | 70 | 1016.1 |
| 20260506062508 | 0 | 0 | 0.0 | 1.6 | 0.00 | 0.00 | 0.00 | 67 | 1015.9 |
| 20260506062010 | 1 | 0 | 0.0 | 1.6 | 0.00 | 0.00 | 0.00 | 66 | 1016.0 |
| 20260506061529 | 1 | 0 | 0.0 | 3.2 | 0.00 | 0.00 | 0.00 | 65 | 1015.9 |
| 20260506061006 | 1 | 340 | 1.6 | 3.2 | 0.00 | 0.00 | 0.00 | 66 | 1015.8 |
| 20260506060510 | 1 | 0 | 0.0 | 1.6 | 0.00 | 0.00 | 0.00 | 66 | 1015.8 |
| 20260506051014 | 2 | 326 | 1.6 | 3.2 | 0.00 | 0.00 | 0.00 | 62 | 1015.5 |
| 20260506050510 | 2 | 322 | 1.6 | 3.2 | 0.00 | 0.00 | 0.00 | 62 | 1015.5 |
| 20260506045010 | 2 | 334 | 1.6 | 3.2 | 0.00 | 0.00 | 0.00 | 61 | 1015.5 |
| 20260506044536 | 2 | 329 | 1.6 | 3.2 | 0.00 | 0.00 | 0.00 | 61 | 1015.7 |
| 20260506044011 | 2 | 15 | 1.6 | 1.6 | 0.00 | 0.00 | 0.00 | 61 | 1015.7 |
| 20260506043510 | 2 | 300 | 0.0 | 1.6 | 0.00 | 0.00 | 0.00 | 61 | 1015.6 |
| 20260506043028 | 2 | 298 | 0.0 | 3.2 | 0.00 | 0.00 | 0.00 | 61 | 1015.7 |
| 20260506042511 | 2 | 317 | 1.6 | 4.8 | 0.00 | 0.00 | 0.00 | 61 | 1015.7 |
| 20260506042011 | 2 | 302 | 3.2 | 4.8 | 0.00 | 0.00 | 0.00 | 60 | 1015.6 |
| 20260506041529 | 2 | 327 | 1.6 | 4.8 | 0.00 | 0.00 | 0.00 | 59 | 1015.7 |
| 20260506041009 | 3 | 330 | 1.6 | 3.2 | 0.00 | 0.00 | 0.00 | 58 | 1015.7 |
| 20260506040510 | 2 | 322 | 1.6 | 3.2 | 0.00 | 0.00 | 0.00 | 59 | 1015.7 |
| 20260506040034 | 2 | 318 | 0.0 | 3.2 | 0.00 | 0.00 | 0.00 | 60 | 1015.8 |
| 20260506035508 | 3 | 309 | 0.0 | 3.2 | 0.00 | 0.00 | 0.00 | 59 | 1015.9 |
| 20260506035008 | 3 | 307 | 1.6 | 3.2 | 0.00 | 0.00 | 0.00 | 58 | 1015.7 |
| 20260506034529 | 3 | 321 | 1.6 | 1.6 | 0.00 | 0.00 | 0.00 | 58 | 1015.6 |
| 20260506034009 | 3 | 328 | 1.6 | 1.6 | 0.00 | 0.00 | 0.00 | 58 | 1015.4 |
| 20260506033511 | 3 | 0 | 0.0 | 0.0 | 0.00 | 0.00 | 0.00 | 57 | 1015.5 |
| 20260506033029 | 3 | 0 | 0.0 | 0.0 | 0.00 | 0.00 | 0.00 | 57 | 1015.4 |
| 20260506032511 | 3 | 0 | 0.0 | 1.6 | 0.00 | 0.00 | 0.00 | 56 | 1015.4 |
| 20260506032011 | 3 | 0 | 0.0 | 1.6 | 0.00 | 0.00 | 0.00 | 56 | 1015.3 |
| 20260506031539 | 3 | 313 | 0.0 | 1.6 | 0.00 | 0.00 | 0.00 | 56 | 1015.4 |
| 20260506031008 | 3 | 0 | 0.0 | 0.0 | 0.00 | 0.00 | 0.00 | 55 | 1015.3 |
| 20260506030512 | 4 | 312 | 0.0 | 3.2 | 0.00 | 0.00 | 0.00 | 55 | 1015.3 |
| 20260506030028 | 4 | 0 | 0.0 | 3.2 | 0.00 | 0.00 | 0.00 | 54 | 1015.3 |
| 20260506025511 | 4 | 316 | 1.6 | 3.2 | 0.00 | 0.00 | 0.00 | 53 | 1015.3 |
| 20260506025015 | 5 | 325 | 1.6 | 6.4 | 0.00 | 0.00 | 0.00 | 53 | 1015.2 |
| 20260506024531 | 5 | 9 | 1.6 | 6.4 | 0.00 | 0.00 | 0.00 | 53 | 1015.0 |
| 20260506024015 | 5 | 330 | 3.2 | 6.4 | 0.00 | 0.00 | 0.00 | 53 | 1015.0 |
| 20260506023517 | 5 | 333 | 3.2 | 8.0 | 0.00 | 0.00 | 0.00 | 52 | 1014.9 |
| 20260506023049 | 5 | 356 | 3.2 | 8.0 | 0.00 | 0.00 | 0.00 | 52 | 1014.9 |
| 20260506022512 | 5 | 323 | 4.8 | 9.7 | 0.00 | 0.00 | 0.00 | 51 | 1014.7 |
| 20260506022012 | 5 | 336 | 4.8 | 9.7 | 0.00 | 0.00 | 0.00 | 51 | 1014.6 |
| 20260506021550 | 5 | 333 | 3.2 | 8.0 | 0.00 | 0.00 | 0.00 | 50 | 1014.5 |
| 20260506021018 | 6 | 316 | 4.8 | 11.3 | 0.00 | 0.00 | 0.00 | 50 | 1014.4 |
| 20260506020508 | 6 | 341 | 4.8 | 12.9 | 0.00 | 0.00 | 0.00 | 49 | 1014.3 |
| 20260506020028 | 6 | 323 | 8.0 | 12.9 | 0.00 | 0.00 | 0.00 | 49 | 1014.4 |
| 20260506015511 | 6 | 328 | 6.4 | 11.3 | 0.00 | 0.00 | 0.00 | 49 | 1014.2 |
| 20260506015011 | 6 | 342 | 4.8 | 17.7 | 0.00 | 0.00 | 0.00 | 48 | 1014.2 |
| 20260506014529 | 6 | 18 | 6.4 | 19.3 | 0.00 | 0.00 | 0.00 | 47 | 1014.0 |
| 20260506014008 | 6 | 331 | 8.0 | 19.3 | 0.00 | 0.00 | 0.00 | 47 | 1014.2 |
| 20260506013511 | 6 | 330 | 4.8 | 11.3 | 0.00 | 0.00 | 0.00 | 47 | 1014.1 |
| 20260506013034 | 7 | 347 | 6.4 | 14.5 | 0.00 | 0.00 | 0.00 | 47 | 1014.0 |
| 20260506012509 | 7 | 341 | 8.0 | 14.5 | 0.00 | 0.00 | 0.00 | 46 | 1014.0 |
| 20260506012010 | 7 | 342 | 8.0 | 14.5 | 0.00 | 0.00 | 0.00 | 46 | 1014.0 |
| 20260506011528 | 7 | 327 | 9.7 | 20.9 | 0.00 | 0.00 | 0.00 | 45 | 1013.9 |
| 20260506011011 | 7 | 346 | 9.7 | 20.9 | 0.00 | 0.00 | 0.00 | 45 | 1013.9 |
| 20260506010511 | 7 | 342 | 9.7 | 16.1 | 0.00 | 0.00 | 0.00 | 44 | 1013.9 |
| 20260506010029 | 7 | 326 | 9.7 | 17.7 | 0.00 | 0.00 | 0.00 | 44 | 1013.9 |
| 20260506005508 | 8 | 314 | 9.7 | 20.9 | 0.00 | 0.00 | 0.00 | 44 | 1013.8 |
| 20260506005013 | 8 | 356 | 11.3 | 29.0 | 0.00 | 0.00 | 0.00 | 42 | 1013.7 |
| 20260506004529 | 8 | 338 | 11.3 | 29.0 | 0.00 | 0.00 | 0.00 | 42 | 1013.5 |
| 20260506004013 | 8 | 319 | 12.9 | 29.0 | 0.00 | 0.00 | 0.00 | 41 | 1013.5 |
| 20260506003517 | 8 | 307 | 14.5 | 30.6 | 0.00 | 0.00 | 0.00 | 42 | 1013.4 |
| 20260506003030 | 8 | 323 | 17.7 | 30.6 | 0.00 | 0.00 | 0.00 | 41 | 1013.4 |
| 20260506002511 | 8 | 351 | 16.1 | 27.4 | 0.00 | 0.00 | 0.00 | 41 | 1013.3 |
| 20260506002010 | 8 | 297 | 11.3 | 24.1 | 0.00 | 0.00 | 0.00 | 43 | 1013.2 |
| 20260506001529 | 8 | 342 | 12.9 | 24.1 | 0.00 | 0.00 | 0.00 | 43 | 1013.2 |
| 20260506001012 | 8 | 3 | 9.7 | 20.9 | 0.00 | 0.00 | 0.00 | 43 | 1013.2 |
| 20260506000511 | 8 | 343 | 12.9 | 24.1 | 0.00 | 0.00 | 0.00 | 42 | 1013.2 |
| 20260506000030 | 8 | 332 | 14.5 | 25.7 | 0.00 | 0.00 | 0.00 | 42 | 1013.2 |
| 20260505235513 | 8 | 348 | 12.9 | 25.7 | 0.00 | 0.00 | 0.00 | 43 | 1013.2 |
| 20260505235010 | 8 | 357 | 12.9 | 25.7 | 0.00 | 0.00 | 0.00 | 42 | 1013.1 |
| 20260505234527 | 8 | 327 | 14.5 | 30.6 | 0.00 | 0.00 | 0.00 | 40 | 1013.2 |
| 20260505234011 | 8 | 332 | 16.1 | 30.6 | 0.00 | 0.00 | 0.00 | 41 | 1013.2 |
| 20260505233514 | 8 | 319 | 14.5 | 24.1 | 0.00 | 0.00 | 0.00 | 40 | 1013.3 |
| 20260505233028 | 8 | 304 | 16.1 | 24.1 | 0.00 | 0.00 | 0.00 | 40 | 1013.1 |
| 20260505232512 | 8 | 358 | 12.9 | 24.1 | 0.00 | 0.00 | 0.00 | 39 | 1013.1 |
| 20260505232010 | 9 | 323 | 11.3 | 25.7 | 0.00 | 0.00 | 0.00 | 40 | 1013.1 |